Theta_e
324 324 324 324 324 324 324 323 321 320 319 317 317 317 316 316 314 314 316 318 319 319 318 317 316 315 315 315 316 317 318 318 318 319 319 319 320 321 321 323 324 325 324 324 324 325 325 325 326 327 327 328 328 328 328 329 329 328 328 327 326 327 328
324 324 325 325 324 324 324 323 322 320 319 318 318 317 317 317 314 312 314 316 317 318 318 316 315 315 315 315 315 316 316 317 318 318 319 319 319 319 319 320 322 323 323 323 323 323 323 324 324 325 326 326 327 327 328 329 329 329 328 328 326 326 327
325 325 325 325 325 325 324 323 322 321 319 319 318 317 317 318 315 313 313 314 316 316 316 316 315 314 315 314 314 315 315 316 316 317 317 317 318 318 318 318 319 320 322 322 322 321 321 322 322 323 323 324 325 326 327 328 328 328 328 328 328 327 327
325 324 325 325 325 325 324 323 323 321 320 320 319 318 318 318 316 314 314 313 314 315 315 315 314 314 314 313 313 313 314 314 315 315 316 316 317 317 317 317 317 318 319 319 319 320 320 320 320 321 322 323 324 325 326 327 327 327 328 328 328 328 328
324 324 324 324 324 325 325 323 323 323 322 321 320 319 319 318 316 315 314 313 313 314 314 314 314 314 314 314 313 313 312 313 314 314 315 315 315 315 315 315 316 317 317 318 318 318 319 319 319 319 320 321 322 323 324 326 327 327 327 328 328 328 327
325 325 325 323 323 325 325 323 323 323 323 322 321 320 319 318 316 315 315 313 313 313 314 314 314 314 314 314 314 313 313 313 314 313 314 316 315 314 314 315 315 316 317 317 317 317 317 318 318 318 318 319 320 322 323 324 326 326 327 327 328 328 328
325 325 325 324 324 325 325 323 321 322 322 322 321 320 319 318 317 316 315 314 314 313 314 314 314 314 313 313 314 314 313 313 313 313 314 316 316 315 315 314 315 316 316 316 316 316 316 316 316 317 318 318 318 319 321 322 324 325 326 326 327 328 328
326 326 325 325 326 327 326 323 321 321 322 322 321 320 320 319 317 316 315 315 314 314 314 315 315 314 313 313 313 313 313 313 313 314 314 315 315 315 315 315 314 315 315 315 315 315 315 315 315 315 317 318 318 317 318 319 321 323 324 325 326 327 326
326 326 326 326 326 327 326 324 322 322 323 322 320 320 320 319 318 316 315 315 315 314 315 315 315 315 314 314 313 313 314 314 314 314 313 313 315 315 315 315 314 314 315 315 315 316 316 316 316 315 316 318 318 318 317 317 318 320 322 323 324 326 325
325 326 326 326 326 326 326 325 323 323 323 322 320 320 320 319 318 316 315 315 315 315 314 315 315 315 314 314 314 314 315 315 314 314 313 313 314 314 314 315 314 314 315 315 316 317 317 317 317 315 316 317 318 318 318 317 317 318 319 320 322 324 325
324 325 325 326 325 325 325 325 325 324 324 324 321 321 320 319 319 317 316 316 316 315 314 313 314 315 315 314 314 314 314 315 315 315 314 314 314 314 314 314 314 314 315 315 316 317 317 318 317 316 316 317 317 317 318 318 318 317 317 319 320 321 323
322 322 322 323 323 323 324 325 325 325 325 325 324 322 320 319 319 318 317 316 316 315 314 313 314 315 315 315 315 315 314 314 315 315 315 315 314 314 313 314 314 314 314 315 316 316 317 318 318 317 317 317 318 318 318 318 318 318 318 318 318 319 320
323 322 322 322 323 324 325 325 326 326 326 326 326 325 322 319 319 319 318 317 316 316 314 314 315 315 315 315 315 315 314 313 313 315 315 315 315 314 313 313 314 314 314 314 315 316 316 317 318 318 318 318 318 319 318 318 318 318 317 318 317 317 317
323 324 324 325 325 326 326 326 326 326 327 326 326 326 324 321 319 319 319 317 317 316 315 315 315 315 315 315 315 315 313 312 313 313 314 314 314 314 312 312 313 314 314 313 314 315 315 316 317 318 317 317 318 318 319 319 320 319 318 318 318 318 318
324 324 324 324 325 325 326 327 327 328 328 327 327 326 325 323 320 319 319 318 318 317 315 315 315 315 315 315 315 315 314 314 314 314 314 313 313 313 312 312 313 313 313 312 313 314 315 315 317 317 317 317 317 318 319 319 320 320 320 319 319 319 319
325 325 324 324 324 325 325 326 327 327 327 328 327 325 325 323 319 319 319 318 318 317 316 315 315 315 315 315 315 315 315 315 315 315 315 313 311 311 312 313 313 313 313 312 312 313 314 315 316 315 315 316 316 317 318 319 319 320 320 319 319 319 319
325 325 324 324 325 325 326 325 326 326 327 327 326 325 324 321 318 318 318 318 318 317 316 316 315 315 315 315 315 315 315 315 315 316 315 315 311 309 311 314 313 313 313 313 313 313 313 314 314 314 314 314 315 315 316 317 318 318 318 318 319 319 319
323 323 323 324 325 325 326 326 325 325 326 326 324 324 323 320 318 318 318 318 318 317 317 316 315 315 316 315 315 315 315 315 316 316 316 316 313 308 309 313 314 313 313 314 314 313 313 313 313 313 313 313 313 314 315 316 317 317 317 317 317 317 318
322 323 323 324 325 325 325 325 324 325 326 326 325 323 320 318 317 318 318 318 317 317 317 317 316 316 316 316 316 316 316 316 316 316 316 316 314 308 307 311 313 313 314 314 313 313 312 313 312 312 312 312 313 314 314 315 316 316 316 316 316 316 315
322 323 322 323 324 323 321 320 321 323 324 325 324 320 317 317 317 318 318 318 317 318 319 318 317 317 316 317 317 317 317 316 316 317 316 316 314 308 305 309 312 313 314 313 312 312 313 313 313 312 312 313 313 314 314 314 315 315 315 315 315 315 315
322 322 322 323 323 321 319 317 317 318 319 319 319 317 317 317 317 318 318 317 317 318 319 319 319 318 317 317 317 317 317 317 317 317 316 316 314 308 305 308 312 313 313 312 312 313 314 313 312 312 313 313 313 313 314 314 314 314 314 315 315 316 315
322 322 322 323 323 322 320 319 319 319 318 318 319 319 319 318 318 318 318 318 317 317 318 318 318 318 318 317 317 318 317 317 317 317 316 315 314 309 305 307 311 312 312 313 313 314 314 313 312 312 312 313 313 313 313 313 313 312 313 313 314 315 315
321 321 322 323 323 322 321 321 321 320 320 320 320 320 320 320 320 320 320 320 319 318 317 317 317 317 318 318 318 318 318 318 318 318 316 315 314 311 307 306 310 312 312 312 313 313 313 312 311 312 312 312 312 312 312 310 309 308 309 310 312 314 314
320 321 322 322 323 323 322 322 321 321 321 321 320 320 320 320 320 320 320 320 320 319 319 318 318 317 317 317 318 318 318 318 318 318 316 315 314 312 309 307 309 310 311 311 312 311 312 311 311 311 311 310 310 310 309 308 307 305 304 304 307 310 313
319 320 321 322 322 322 322 322 322 321 321 321 320 320 320 320 320 320 320 320 319 319 319 319 319 318 318 317 317 318 318 318 318 317 316 315 315 314 311 309 309 310 311 311 311 311 312 312 311 310 310 310 309 309 309 309 308 307 304 301 300 304 308
320 320 321 321 322 322 322 321 321 321 321 321 320 320 320 320 320 320 320 320 320 319 319 319 319 318 318 318 318 318 318 318 317 317 317 316 315 315 313 310 310 311 311 311 311 312 312 312 312 312 312 311 311 310 310 309 309 309 306 302 299 300 304
321 321 321 321 321 321 321 321 321 320 320 321 320 320 320 320 320 320 320 320 320 319 319 319 319 318 318 318 318 318 318 318 317 317 317 317 316 316 315 312 310 310 311 311 311 312 312 312 312 312 312 312 312 311 311 310 310 309 306 302 300 300 303
321 321 322 321 321 321 321 321 320 320 320 320 320 320 320 320 320 320 320 320 320 320 320 319 319 318 318 318 318 318 318 318 317 317 317 317 317 316 316 314 312 310 310 311 312 312 312 312 312 312 312 313 313 312 311 310 310 308 306 303 301 301 303
321 321 322 322 322 321 321 321 320 320 320 320 320 321 320 320 321 320 320 320 320 320 320 320 319 319 319 319 319 319 318 318 318 317 317 317 318 317 317 316 314 311 310 311 312 312 312 312 312 312 313 313 313 312 310 310 309 307 306 305 304 303 304
321 321 321 321 322 322 322 321 321 321 321 320 321 321 320 320 319 320 320 321 321 320 320 320 320 320 320 320 319 319 319 318 318 318 318 317 318 318 317 317 316 313 310 311 312 312 312 312 311 312 313 313 312 311 310 309 308 307 307 307 307 306 306
322 322 322 322 321 321 321 321 321 321 321 321 321 320 319 318 318 317 318 319 319 321 321 321 320 320 320 320 319 319 319 319 319 319 318 318 318 318 318 317 317 314 312 311 311 311 311 311 310 311 311 312 311 311 310 309 308 308 308 309 309 308 307
322 322 321 321 321 321 322 321 321 321 321 321 321 320 319 319 319 318 317 317 317 319 320 320 321 321 321 320 320 320 319 319 319 319 319 318 318 318 318 318 317 315 313 312 312 311 311 310 310 310 311 311 311 311 310 309 308 308 308 309 310 311 310
321 321 321 320 320 321 321 321 321 321 321 321 321 320 320 320 321 320 319 318 317 316 317 317 318 320 321 321 320 320 320 320 320 319 319 319 318 319 319 318 317 316 315 314 313 311 311 310 310 311 311 311 311 311 310 309 309 309 309 309 309 311 311
322 322 321 320 320 320 320 321 321 321 321 321 321 321 321 321 321 321 321 320 319 317 316 316 316 318 320 321 321 321 321 320 320 320 319 319 319 319 319 318 317 316 316 315 314 312 310 310 311 311 311 311 310 310 310 309 309 310 310 309 308 310 312
323 323 323 322 322 321 321 321 321 321 321 321 321 321 321 321 321 321 321 321 320 319 318 318 317 317 318 319 321 321 321 321 320 320 320 319 319 319 319 318 318 317 316 316 315 313 311 310 311 311 311 310 310 311 311 310 310 311 311 310 308 308 311
324 323 324 324 324 323 322 321 321 321 321 321 321 321 321 321 321 321 321 321 321 321 320 319 318 318 318 318 320 320 320 320 320 320 320 320 319 319 319 319 318 318 317 317 316 314 312 310 311 311 312 311 311 311 311 311 311 311 311 311 309 308 309
325 324 324 324 324 325 324 323 322 322 321 321 321 321 321 321 322 321 321 321 321 321 321 321 320 319 319 319 320 320 320 319 319 320 320 320 320 319 319 319 318 318 318 317 317 315 312 311 311 312 312 312 312 312 311 311 311 311 312 312 310 308 308
Wind_Speed
2 3 3 3 4 5 6 6 6 6 7 8 10 11 13 15 14 8 4 5 5 6 7 8 9 9 7 7 6 5 5 5 5 5 6 4 2 3 3 2 1 3 6 8 9 8 8 10 8 4 4 4 3 5 6 6 7 7 6 6 7 6 7
3 4 4 4 5 5 4 4 5 5 6 7 9 10 13 15 16 13 8 6 5 6 7 8 10 9 8 8 7 6 5 5 4 5 6 5 5 4 2 1 1 1 1 3 5 5 7 10 11 10 9 6 2 2 5 5 6 7 7 6 6 6 6
3 4 5 5 5 4 4 3 3 4 5 7 8 9 12 15 16 16 13 8 6 7 7 9 11 10 10 10 9 7 6 5 4 4 5 5 5 6 5 5 4 3 3 3 5 6 8 9 11 13 13 11 7 4 5 5 5 6 6 6 6 5 6
3 3 4 5 5 4 4 4 3 3 5 7 7 8 12 15 14 16 15 10 8 8 8 9 11 10 12 12 9 6 5 5 4 3 3 4 4 5 5 5 5 4 3 4 6 7 8 9 11 13 13 13 11 8 7 6 5 5 5 6 6 5 5
3 4 5 5 5 5 5 5 5 4 6 7 7 7 11 13 13 14 15 13 10 9 9 11 11 10 11 13 12 10 8 6 5 4 3 4 4 4 4 3 2 2 3 4 5 5 6 8 10 12 14 14 12 8 7 6 5 5 6 7 7 6 6
3 4 5 5 5 6 6 6 7 6 7 8 8 8 9 11 11 11 13 15 14 11 11 12 12 10 11 12 13 14 12 9 8 7 6 6 6 5 6 4 1 1 2 4 5 6 7 8 9 11 13 13 13 12 8 6 5 5 5 8 9 7 6
4 5 5 5 5 6 6 6 7 7 7 8 8 8 8 9 10 10 10 13 15 13 12 13 13 13 13 13 13 13 13 12 11 9 7 7 8 8 7 4 2 1 2 3 5 7 9 10 12 13 14 14 13 13 10 6 6 6 5 6 8 8 7
4 5 5 5 6 6 6 6 6 6 6 7 7 7 7 8 10 9 8 10 12 13 12 11 12 13 14 14 14 13 13 12 11 10 8 7 8 9 8 7 5 2 2 3 5 7 9 13 14 13 13 14 14 14 12 9 6 5 6 6 4 6 7
4 6 5 5 6 5 6 6 5 5 5 6 6 6 6 7 8 8 7 9 10 11 10 9 9 11 13 14 14 13 13 12 12 11 10 8 7 8 8 9 9 4 2 4 6 6 8 13 16 11 9 10 12 14 14 12 9 4 5 7 5 4 5
5 5 5 5 5 5 6 5 5 5 5 6 6 6 5 5 7 8 6 8 10 10 8 8 7 8 11 12 13 12 12 12 12 12 13 11 8 8 7 8 9 4 1 4 6 7 8 10 14 11 8 7 9 12 13 15 14 10 7 8 8 8 7
5 5 6 6 6 6 7 6 6 6 5 6 7 6 6 5 6 7 7 7 10 11 8 6 6 6 8 11 12 11 11 11 12 12 13 12 10 9 8 7 7 4 2 3 5 7 8 9 12 10 6 6 7 9 11 14 16 13 11 11 10 10 10
4 5 6 6 7 7 7 7 8 8 7 7 7 6 7 6 5 6 7 7 10 11 8 6 6 6 7 9 10 11 11 10 10 10 11 11 10 10 9 8 7 5 3 3 5 7 7 7 9 9 8 6 7 9 10 12 15 14 12 13 13 12 12
5 5 5 6 7 7 8 9 10 10 9 8 7 6 6 5 5 6 7 6 7 9 8 6 6 6 6 7 9 10 11 11 10 9 9 9 9 10 11 10 8 7 5 4 4 7 7 6 6 8 9 7 7 9 10 11 14 14 12 13 15 15 14
4 5 6 7 9 9 10 11 11 12 11 9 8 7 6 6 7 6 6 5 6 7 8 7 7 7 6 7 8 10 11 12 13 12 11 10 10 10 12 10 9 9 8 6 5 7 8 7 6 7 8 8 9 11 12 11 13 14 13 12 13 14 13
4 5 6 7 8 9 11 12 13 13 12 10 8 7 6 7 9 8 6 5 6 7 7 8 9 8 6 6 8 10 10 12 15 15 15 13 12 11 11 10 8 9 10 8 6 8 9 9 9 9 9 10 10 11 12 13 13 14 14 13 14 13 11
5 6 7 7 8 8 8 11 13 13 12 11 9 7 6 6 9 9 8 6 5 6 7 8 8 7 7 8 9 10 10 13 16 16 16 17 15 12 10 9 7 7 9 8 7 8 10 10 10 11 11 11 12 11 11 12 12 13 14 15 14 13 12
7 7 8 9 9 8 8 10 11 11 11 10 9 7 5 5 9 10 9 7 5 5 7 9 9 9 9 9 10 10 11 14 17 17 17 18 17 13 10 8 7 7 7 8 6 7 9 10 11 13 13 13 13 12 11 11 12 13 14 15 14 13 12
8 8 9 9 8 8 9 11 11 10 9 9 8 7 5 6 9 10 8 7 6 5 7 9 10 11 11 10 11 11 12 14 17 17 17 19 19 14 10 9 7 7 7 7 6 6 7 10 11 13 14 14 13 13 13 12 13 13 14 16 16 14 13
10 10 10 10 10 10 11 12 11 9 9 8 8 7 6 6 7 6 5 5 5 6 7 9 11 12 12 12 11 11 12 14 16 17 18 20 20 15 11 10 8 7 8 8 7 7 7 9 11 13 14 14 12 12 13 14 14 15 15 15 16 16 15
10 10 10 9 9 11 11 11 10 9 9 9 8 8 7 6 6 5 5 6 8 8 9 10 11 12 13 13 12 12 13 14 15 16 18 19 20 17 11 10 9 7 7 7 6 6 7 8 11 13 12 12 11 11 11 12 13 14 15 15 15 15 15
11 11 11 9 9 9 8 7 7 7 7 7 7 6 6 5 5 6 6 7 9 10 11 10 10 12 13 13 12 12 14 15 15 16 18 19 20 18 12 9 8 6 5 5 5 6 7 8 11 13 13 12 12 11 11 11 12 13 14 15 15 15 16
12 12 11 11 10 8 7 6 6 6 6 5 5 5 5 4 5 5 5 6 8 10 12 13 13 12 11 11 12 13 14 15 15 17 18 18 18 17 14 9 8 6 5 5 5 6 7 10 12 13 13 13 13 12 12 13 14 15 15 15 15 16 16
11 12 12 12 12 11 10 9 8 7 7 7 7 7 6 7 7 8 8 8 8 9 10 11 13 13 13 12 13 13 14 15 17 18 18 17 17 17 15 9 8 8 7 6 6 7 8 10 11 10 10 11 12 12 13 14 14 15 16 16 16 17 18
10 11 12 12 12 13 13 12 11 10 9 9 9 8 8 9 10 10 10 10 10 10 10 10 11 13 14 15 15 16 17 18 19 19 17 15 15 16 15 10 9 9 7 5 6 7 7 7 7 7 8 9 10 11 12 13 14 15 16 17 18 18 19
11 11 12 13 13 13 12 13 14 13 12 12 11 11 12 13 13 13 13 13 14 13 13 11 11 12 13 14 15 16 17 18 18 17 15 14 14 15 15 10 7 7 5 5 6 7 8 8 7 8 8 9 10 12 14 16 17 18 19 20 19 19 20
11 11 12 13 13 13 12 13 14 15 15 14 13 14 15 15 15 16 16 16 16 16 15 13 12 13 14 14 14 14 14 14 14 15 14 13 13 13 14 11 6 5 5 7 8 9 10 11 11 11 11 11 12 14 16 18 19 20 22 22 20 19 19
14 13 12 13 14 14 14 14 15 15 16 16 17 18 18 18 18 18 18 18 18 18 17 15 14 14 15 15 15 15 15 15 14 14 15 14 12 12 13 12 10 7 7 8 10 10 11 13 14 15 15 15 14 15 17 18 19 21 24 23 21 19 19
17 17 15 15 15 16 16 16 16 16 17 18 19 20 20 20 21 21 21 20 20 20 18 17 16 16 16 17 17 17 16 16 15 15 15 14 14 13 12 12 12 11 10 9 8 9 11 13 15 16 18 17 16 17 18 18 20 22 24 23 21 20 19
19 19 19 18 19 19 18 17 17 17 18 19 20 20 21 22 22 22 22 22 22 22 20 19 18 18 18 18 19 19 19 18 17 16 16 16 15 14 13 13 13 13 12 11 9 8 10 12 14 16 18 18 17 17 18 19 21 22 22 22 21 20 20
20 21 21 22 23 23 22 20 19 18 19 20 20 20 20 20 20 21 22 22 23 23 22 21 20 20 20 19 19 20 20 20 20 20 19 18 16 15 14 14 13 13 14 14 12 11 11 13 14 14 15 16 17 17 18 19 20 20 19 20 21 20 20
20 21 22 23 24 24 24 23 22 21 21 22 21 20 18 17 19 20 21 22 23 24 24 23 21 21 21 20 20 21 21 22 23 23 22 21 19 17 16 15 14 14 14 14 13 13 13 14 14 13 12 14 16 17 19 20 19 17 18 18 17 16 17
20 21 22 22 23 23 22 21 21 21 22 23 23 21 20 20 21 21 22 22 22 24 25 24 23 22 22 22 22 23 23 24 24 24 24 23 22 19 18 16 15 14 14 15 14 14 14 15 16 14 12 13 15 17 19 19 17 16 17 17 15 14 15
21 22 22 23 23 23 22 22 23 23 24 25 25 26 25 25 24 23 23 23 22 23 24 25 25 25 24 24 24 24 25 26 26 26 25 24 23 21 19 17 15 15 15 15 15 15 15 16 16 15 14 14 16 18 18 17 15 16 17 17 17 16 15
24 24 24 23 23 23 24 24 24 25 26 27 28 28 29 28 27 25 25 24 23 22 23 24 25 26 26 26 25 25 26 27 28 27 26 24 24 22 19 17 15 15 15 15 15 15 15 15 15 15 14 15 16 17 17 16 15 16 17 18 19 17 14
27 26 26 25 25 25 24 25 26 26 28 29 30 30 30 30 29 28 27 27 26 24 23 23 24 25 26 26 26 26 28 28 27 24 24 24 24 22 19 17 16 15 16 16 15 15 14 14 14 14 14 15 15 16 16 16 16 17 17 18 18 17 13
31 30 28 26 26 27 26 27 27 27 28 30 31 31 31 31 30 30 29 30 29 28 26 24 24 24 24 25 26 26 27 27 24 22 22 23 23 21 19 17 16 16 18 17 16 15 14 14 14 14 13 14 15 16 16 16 16 18 19 18 17 16 14
30 31 30 28 27 28 28 29 29 30 30 31 32 32 32 32 31 32 32 32 32 31 28 26 25 24 22 22 22 23 23 23 21 21 22 22 22 21 19 17 16 17 19 19 18 17 16 16 15 14 14 15 16 16 16 16 17 18 20 19 17 15 13
Wind_Direction
281 310 338 348 357 351 342 350 1 1 350 348 3 13 15 17 16 15 12 0 347 349 354 356 3 3 357 353 347 344 348 346 351 6 13 12 22 58 91 121 80 53 43 41 34 18 0 342 331 324 317 315 329 341 345 350 352 355 353 336 317 299 269
281 306 323 335 344 344 338 342 354 351 336 335 350 5 9 10 15 20 17 3 355 359 3 4 3 359 357 355 345 340 338 334 343 349 353 0 357 351 342 276 249 284 330 5 8 13 12 350 334 331 329 316 293 355 358 347 347 354 355 346 327 308 285
306 317 314 318 328 334 331 339 2 341 318 329 341 354 3 4 12 22 22 10 354 360 7 7 5 5 4 359 350 344 342 337 336 331 336 351 350 340 327 313 314 313 286 296 327 352 9 356 332 323 328 330 325 338 4 356 349 354 357 354 341 319 299
305 307 304 306 313 329 336 331 346 327 307 323 334 342 356 0 8 19 23 15 357 4 15 12 11 13 11 11 10 2 357 356 356 345 330 334 334 332 328 319 330 351 353 346 345 342 344 343 330 317 316 322 321 325 351 356 353 1 6 1 347 323 298
276 280 290 300 309 324 332 324 323 311 297 307 323 338 348 355 5 18 24 24 19 17 21 22 22 20 17 23 28 26 29 38 32 39 37 3 349 340 346 345 350 24 37 19 0 336 328 330 327 318 312 314 312 314 338 347 347 3 14 9 354 330 303
274 279 283 292 306 319 326 326 322 311 295 294 307 327 338 347 0 15 25 32 39 39 35 36 35 29 26 30 32 28 32 36 27 37 57 37 25 25 23 31 77 73 42 27 12 352 338 325 321 320 316 313 307 307 319 337 344 349 12 23 14 356 331
277 277 280 292 297 301 312 324 327 320 303 295 299 313 327 341 356 8 23 31 39 42 41 43 41 39 39 36 34 30 29 31 29 35 46 36 31 32 27 35 85 73 17 9 357 349 344 333 325 321 320 317 305 300 304 313 336 340 347 21 28 24 14
267 266 270 280 279 284 298 309 324 328 312 299 300 308 320 337 350 2 19 24 31 37 36 36 37 41 43 39 36 35 30 30 33 35 37 33 28 25 21 16 19 34 30 355 331 334 348 349 339 321 313 323 318 306 299 289 300 337 344 345 9 32 26
255 258 262 268 272 281 295 299 311 325 315 300 300 309 317 329 343 354 11 14 20 33 31 24 27 32 36 38 37 36 33 31 29 26 22 24 25 22 19 8 6 25 46 357 339 337 351 354 349 327 296 318 333 326 315 301 289 292 335 336 322 330 356
256 258 258 263 276 286 294 298 305 317 316 296 293 302 309 313 327 340 354 0 9 26 27 13 16 22 25 31 34 32 28 25 21 16 12 13 12 12 16 5 2 12 348 349 353 345 342 348 351 337 298 301 332 334 328 319 308 294 303 326 320 307 317
254 256 257 262 273 280 288 296 302 312 317 301 293 293 292 292 306 322 331 344 1 14 12 359 6 13 16 23 27 24 19 14 11 8 7 6 0 356 0 355 354 355 297 325 353 342 341 356 359 350 325 303 309 317 317 313 311 304 300 308 312 304 302
266 262 262 265 271 277 288 299 303 308 309 303 301 293 284 282 289 300 308 326 356 8 7 356 356 358 6 15 20 16 9 5 3 359 357 358 353 345 340 334 338 343 291 285 343 342 341 2 2 348 341 329 313 311 307 303 304 306 306 303 299 297 299
297 286 276 273 279 285 292 297 301 305 306 303 304 300 282 267 271 287 292 307 343 1 5 359 346 340 349 3 12 8 0 359 359 352 342 339 339 336 330 318 313 324 310 277 314 332 331 346 352 339 335 334 328 323 316 307 304 303 304 302 296 296 300
310 305 297 285 283 283 284 290 295 298 299 296 296 302 289 259 255 275 287 296 320 340 349 349 341 330 329 343 0 2 358 2 2 357 346 330 321 324 327 316 299 301 304 287 292 310 315 321 331 335 329 324 327 329 324 319 313 309 309 308 305 304 304
320 318 316 305 296 288 283 284 286 287 290 289 284 288 291 265 251 259 272 285 305 320 328 335 337 329 313 322 348 353 350 355 356 356 355 344 325 315 320 322 304 290 294 293 283 290 298 305 318 331 332 327 327 331 330 324 319 317 318 317 318 317 312
298 300 307 312 311 307 296 285 280 282 288 292 284 274 281 265 244 245 253 263 288 314 318 320 325 326 318 318 333 340 340 346 347 348 353 350 336 317 309 318 314 291 291 297 289 285 292 298 311 325 333 334 332 331 331 326 321 322 322 319 322 326 323
278 287 301 309 306 303 301 294 289 286 286 287 278 269 274 256 230 232 246 256 268 293 302 301 305 316 325 325 324 326 331 339 342 342 346 348 341 323 300 298 306 299 293 296 299 298 297 299 308 318 326 333 335 331 330 327 322 320 320 319 320 325 326
282 291 299 299 292 290 291 295 298 291 281 277 268 263 272 255 230 232 253 267 268 275 285 287 293 307 320 327 328 329 334 337 338 339 340 343 341 329 300 284 294 299 293 294 300 302 304 308 312 316 320 325 326 319 314 318 321 317 315 317 317 317 317
289 293 297 291 286 291 288 288 294 287 275 270 265 265 269 257 242 246 264 265 255 264 279 280 285 298 310 319 325 332 337 336 334 336 337 339 341 334 305 281 282 285 286 292 296 299 307 316 320 320 319 319 316 305 295 298 307 311 311 312 314 315 312
282 293 306 304 299 304 299 289 288 283 274 270 269 270 269 264 267 275 276 259 246 254 271 278 282 289 296 304 313 325 332 332 330 331 334 337 339 336 313 281 274 273 279 289 293 298 306 313 319 322 318 312 308 306 300 296 299 304 305 306 309 313 312
276 293 307 310 310 320 325 314 304 299 293 290 287 285 284 287 290 289 286 280 269 265 268 274 280 284 287 291 300 316 325 325 324 326 331 334 335 334 320 282 262 255 263 277 285 289 294 302 310 314 313 308 307 311 315 315 314 313 311 307 307 309 310
276 289 296 301 305 314 330 337 333 330 327 324 323 321 317 311 300 292 293 297 295 285 276 273 274 277 281 288 298 310 316 315 316 320 327 330 331 333 324 285 246 235 245 253 266 275 281 293 300 305 308 307 308 314 319 321 321 321 318 313 309 306 306
276 283 287 293 298 301 308 313 315 318 321 321 323 322 316 310 305 302 299 297 297 294 288 281 275 273 278 285 291 299 302 304 309 314 320 324 327 332 328 296 246 237 241 242 257 275 287 295 297 304 313 314 313 316 319 320 321 320 317 312 306 303 303
282 283 286 289 292 296 299 299 299 302 304 307 312 309 301 298 298 298 299 299 298 299 300 296 289 284 285 284 284 288 293 298 303 308 312 319 325 329 331 310 259 242 236 231 248 272 294 312 321 325 329 329 326 323 323 324 325 324 321 313 302 295 294
290 282 280 284 287 290 291 292 292 292 293 298 303 301 299 298 297 296 295 296 297 300 302 299 294 293 293 292 289 289 293 297 301 302 304 313 322 326 331 320 267 233 221 227 239 251 268 292 315 324 324 324 323 324 324 324 325 325 324 318 306 291 282
290 280 276 280 284 283 283 287 289 287 288 290 290 290 292 292 293 295 295 296 297 298 299 297 294 294 295 296 294 291 292 296 300 300 298 304 315 322 328 322 282 229 215 237 251 254 259 270 282 296 303 306 311 317 319 320 321 320 320 318 310 294 279
286 283 277 277 279 279 278 281 284 284 284 283 282 286 289 289 289 290 292 295 296 295 295 294 290 290 293 294 292 290 291 293 297 299 297 299 304 313 323 320 296 260 233 240 256 265 273 277 277 280 286 291 300 310 315 316 317 316 317 315 308 296 280
284 285 280 276 277 279 278 277 279 280 282 282 282 286 290 290 291 291 291 291 292 292 294 293 289 286 287 290 291 290 291 292 294 296 295 296 298 301 310 315 304 282 254 244 258 273 281 283 279 277 278 283 294 305 311 313 313 314 315 314 308 298 284
284 285 281 275 273 276 278 278 278 279 279 280 280 282 285 287 288 289 289 288 287 288 291 291 288 286 286 289 289 288 289 291 291 291 291 293 294 293 296 305 307 292 265 250 254 269 281 286 284 280 278 281 289 299 306 310 312 313 315 314 310 301 286
284 285 283 278 275 275 277 279 281 280 277 276 277 278 282 286 289 288 286 284 283 284 286 286 284 282 284 285 284 283 285 286 286 286 287 289 290 289 289 294 300 293 273 257 252 257 273 288 290 285 281 281 285 295 306 310 311 313 316 316 313 303 288
280 282 282 281 279 279 277 277 278 276 272 272 273 275 282 292 296 295 291 288 284 282 283 282 278 277 279 279 278 278 278 280 282 283 283 284 286 288 287 287 290 286 276 266 259 258 269 283 288 286 282 280 285 297 308 310 310 316 321 322 319 309 294
274 275 277 278 278 279 278 275 275 274 272 272 273 275 281 289 294 296 296 294 289 285 284 283 278 276 278 278 276 275 276 277 278 279 280 281 281 284 285 283 281 279 276 274 270 268 272 279 284 285 284 283 290 301 306 306 309 319 325 328 327 321 309
268 269 271 274 276 278 278 278 278 277 276 277 277 276 277 279 284 291 295 295 292 288 287 286 284 282 281 280 277 275 274 274 275 277 279 278 277 279 281 279 276 274 276 278 277 275 275 278 282 284 283 285 293 299 300 301 309 318 324 327 329 329 327
269 267 268 270 272 274 274 275 275 275 276 276 276 274 273 273 277 285 292 292 291 290 288 287 285 284 282 281 279 276 274 275 277 278 277 274 274 277 277 273 271 273 276 279 280 276 275 277 280 281 282 285 291 293 293 296 305 314 319 322 324 327 332
273 270 268 269 269 270 271 271 272 273 274 274 274 273 273 273 276 282 289 291 292 293 292 288 284 281 280 279 278 278 277 279 280 278 274 272 272 275 275 271 268 271 275 280 280 275 272 274 275 277 282 286 287 287 288 292 300 308 314 316 317 321 328
280 275 271 270 271 271 271 271 271 273 274 274 274 273 274 276 278 282 288 292 293 294 294 291 286 282 278 276 277 278 278 278 279 276 274 273 274 275 275 270 266 268 273 277 278 275 271 270 270 275 282 285 284 284 283 286 293 302 308 309 308 314 321
285 280 275 273 275 276 276 274 273 274 275 275 275 273 274 276 277 280 285 289 291 291 292 292 289 285 280 276 275 276 274 273 273 273 273 274 274 274 273 268 265 266 269 272 275 274 269 266 266 272 278 280 281 281 280 283 290 298 304 304 300 302 314